TimeMST,TemperatureF,Dew PointF,Humidity,Sea Level PressureIn,VisibilityMPH,Wind Direction,Wind SpeedMPH,Gust SpeedMPH,PrecipitationIn,Events,Conditions,WindDirDegrees,DateUTC
12:53 AM,33.1,21.9,64,29.72,10.0,SSW,10.4,-,N/A,,Clear,200,2012-12-12 07:53:00
1:53 AM,30.9,21.0,67,29.73,10.0,SSW,5.8,-,N/A,,Clear,210,2012-12-12 08:53:00
2:53 AM,28.9,19.9,69,29.74,10.0,SW,4.6,-,N/A,,Clear,230,2012-12-12 09:53:00
3:53 AM,26.1,19.0,75,29.75,10.0,WSW,3.5,-,N/A,,Clear,250,2012-12-12 10:53:00
4:53 AM,21.0,17.1,85,29.78,10.0,WSW,3.5,-,N/A,,Clear,240,2012-12-12 11:53:00
5:53 AM,21.0,16.0,81,29.80,10.0,SW,5.8,-,N/A,,Clear,220,2012-12-12 12:53:00
6:53 AM,19.0,15.1,85,29.81,10.0,Calm,Calm,-,N/A,,Clear,0,2012-12-12 13:53:00
7:53 AM,21.9,19.0,89,29.83,10.0,SW,3.5,-,N/A,,Clear,220,2012-12-12 14:53:00
8:53 AM,27.0,21.0,78,29.83,10.0,Calm,Calm,-,N/A,,Clear,0,2012-12-12 15:53:00
9:53 AM,32.0,24.1,73,29.81,10.0,WSW,3.5,-,N/A,,Clear,250,2012-12-12 16:53:00
10:53 AM,46.0,24.1,42,29.74,10.0,West,3.5,-,N/A,,Clear,260,2012-12-12 17:53:00
11:53 AM,54.0,19.9,26,29.70,10.0,WSW,15.0,-,N/A,,Clear,250,2012-12-12 18:53:00
12:53 PM,55.9,19.0,24,29.68,10.0,WSW,15.0,-,N/A,,Clear,250,2012-12-12 19:53:00
1:53 PM,55.0,19.0,24,29.68,10.0,West,11.5,-,N/A,,Clear,260,2012-12-12 20:53:00
2:53 PM,51.1,19.9,29,29.72,10.0,West,6.9,-,N/A,,Clear,270,2012-12-12 21:53:00
3:53 PM,46.9,19.9,34,29.75,10.0,WSW,5.8,-,N/A,,Clear,250,2012-12-12 22:53:00
4:53 PM,39.0,19.9,46,29.80,10.0,SW,8.1,-,N/A,,Clear,230,2012-12-12 23:53:00
5:53 PM,32.0,19.0,59,29.85,10.0,SW,6.9,-,N/A,,Clear,220,2012-12-13 00:53:00
6:53 PM,36.0,19.0,50,29.86,10.0,West,4.6,-,N/A,,Clear,260,2012-12-13 01:53:00
7:53 PM,32.0,19.0,59,29.88,10.0,SW,5.8,-,N/A,,Clear,230,2012-12-13 02:53:00
8:53 PM,30.9,19.0,61,29.88,10.0,WSW,8.1,-,N/A,,Clear,250,2012-12-13 03:53:00
9:53 PM,32.0,19.0,59,29.88,10.0,WSW,11.5,-,N/A,,Clear,250,2012-12-13 04:53:00
10:53 PM,45.0,21.0,39,29.82,10.0,WSW,20.7,27.6,N/A,,Clear,250,2012-12-13 05:53:00
11:53 PM,46.0,21.0,37,29.83,10.0,WSW,17.3,23.0,N/A,,Clear,250,2012-12-13 06:53:00